Wind_Speed
94 96 99 99 97 93 89 87 85 83 82 81 79 77 75 72 65 60 60 58 54 53 57 57 55 56 54 49 48 45 42 40 37 34 33 32 31 30 29 28 26 24 23 23 21 20 19 18 16 15 15 14 14 14 14 15 15 15 15 16 17 19 20
96 98 100 101 99 96 93 90 86 85 85 84 82 80 78 74 67 62 62 61 57 55 60 63 59 57 56 52 50 48 45 43 39 37 36 35 34 33 33 31 28 26 26 25 22 21 20 18 17 16 16 16 16 16 16 16 17 17 17 16 15 18 21
97 98 100 103 102 100 98 94 89 88 87 85 84 81 78 74 69 65 62 62 59 57 63 67 60 58 59 56 52 50 48 45 42 40 40 39 38 36 35 33 30 28 28 27 25 23 21 20 19 18 18 17 17 17 17 18 18 18 17 16 15 16 19
97 98 101 104 104 103 101 97 92 90 88 87 85 82 80 77 72 67 64 63 60 60 65 68 62 61 62 59 56 53 50 47 45 44 43 42 41 39 38 36 33 31 30 29 27 24 22 21 20 19 19 18 17 17 18 19 19 18 18 18 18 18 19
99 99 101 102 103 103 104 100 95 92 90 88 87 84 83 80 75 70 67 64 63 63 67 69 66 65 65 62 59 55 52 50 48 47 46 45 44 42 40 38 35 34 32 31 29 26 23 22 21 21 21 19 18 18 18 19 19 20 20 20 20 21 21
101 101 102 102 104 106 106 104 99 96 93 90 88 85 83 80 77 73 69 67 67 66 68 70 69 68 67 64 61 57 54 53 52 50 49 47 45 44 42 39 37 36 34 32 30 27 25 24 24 24 23 20 19 18 18 19 20 21 22 22 22 22 22
105 105 104 103 104 106 106 104 101 99 96 92 89 86 84 82 79 76 72 70 69 68 69 72 71 69 68 65 62 59 56 56 55 53 51 48 47 45 43 41 39 38 36 34 31 29 27 27 26 25 24 22 20 19 18 18 20 21 22 23 23 23 23
109 109 107 104 103 104 104 103 101 100 98 94 91 88 87 86 82 79 75 71 70 70 72 73 72 71 70 67 64 61 58 57 57 55 53 50 47 46 44 42 41 39 37 34 32 30 30 30 28 27 26 24 22 20 19 19 20 20 21 23 24 24 24
112 112 110 107 105 105 104 103 104 103 102 97 92 89 87 85 83 81 77 73 72 74 75 76 74 73 72 70 67 64 60 59 58 55 53 51 49 47 46 43 41 40 38 35 34 34 34 32 31 30 28 26 24 23 22 20 19 19 21 23 24 25 26
113 113 112 109 108 107 106 107 108 107 104 100 94 91 89 86 83 82 79 76 76 77 79 79 77 74 75 73 69 66 62 60 58 56 53 51 50 49 47 44 42 41 39 38 37 37 36 34 33 31 29 27 26 25 23 21 20 19 20 22 23 25 26
112 113 113 111 110 111 110 110 109 106 103 100 97 95 91 89 87 85 81 79 78 79 82 82 80 79 77 73 69 68 64 60 59 57 54 52 51 49 47 45 43 42 41 40 39 39 38 36 34 32 30 29 27 26 25 23 21 20 20 21 23 24 26
112 114 114 113 113 114 112 108 104 103 103 101 99 97 93 91 90 87 85 82 80 82 85 84 83 82 77 72 70 69 66 62 60 58 55 53 51 48 47 45 44 44 43 42 42 41 39 36 35 33 31 30 28 27 26 24 22 22 22 22 23 24 26
112 114 115 114 114 114 112 108 103 102 102 101 99 98 96 93 91 88 87 85 83 86 89 87 84 82 77 72 70 69 67 63 60 58 55 53 51 49 47 46 46 45 44 43 42 41 39 37 36 34 33 31 30 28 27 26 25 25 24 24 24 25 26
111 114 114 114 114 113 112 109 105 103 103 102 101 100 98 95 91 90 89 86 85 89 90 87 85 83 78 73 70 69 68 65 62 59 56 54 52 50 48 47 46 45 44 44 43 42 41 39 37 36 35 33 31 30 29 28 27 27 26 26 25 26 27
111 113 113 113 113 112 112 111 109 105 103 103 102 101 100 97 93 92 91 88 87 89 89 87 87 85 80 76 72 70 70 67 64 61 58 56 53 51 49 48 48 47 47 47 46 44 42 41 40 38 37 35 33 32 30 29 28 28 28 27 26 26 28
111 113 114 113 112 112 113 112 111 108 103 103 103 102 101 99 95 93 93 90 88 89 89 88 88 86 82 77 73 71 70 68 65 62 59 57 54 52 51 51 51 51 50 49 47 45 43 42 41 39 37 36 34 33 32 32 31 30 29 28 27 27 28
110 114 115 113 113 113 113 112 112 109 105 102 102 102 102 102 99 97 96 92 89 90 90 89 88 86 82 78 74 71 70 69 67 63 60 58 56 55 54 53 53 52 50 48 47 45 44 43 42 41 39 38 37 36 35 34 32 31 30 28 28 28 28
108 114 116 114 113 112 111 111 111 110 107 103 101 102 104 104 103 100 97 92 89 91 92 90 88 86 82 79 75 72 70 70 69 66 63 60 58 57 56 56 54 52 50 49 49 47 46 44 44 43 41 40 38 37 35 33 32 31 30 29 29 29 29
106 113 116 115 113 110 109 111 111 111 109 105 101 103 106 106 104 101 96 92 91 94 94 91 88 86 84 81 77 75 72 70 69 68 65 63 61 60 59 57 54 53 52 52 51 49 48 46 45 44 42 41 38 36 35 34 33 32 31 30 30 30 30
103 110 113 114 111 109 109 110 111 112 110 106 103 103 106 106 105 102 98 94 94 95 94 91 89 88 86 82 79 77 75 72 70 69 67 66 65 63 60 57 55 56 56 54 52 50 49 48 46 45 44 42 39 37 36 35 34 34 33 32 31 31 31
99 105 109 110 110 110 110 110 112 113 111 108 106 104 104 105 105 103 99 96 95 95 94 92 90 89 88 85 82 80 77 73 71 69 68 68 66 63 60 59 59 59 57 53 52 51 51 49 48 47 45 41 39 38 37 35 35 35 34 34 33 33 33
95 101 104 107 109 110 111 113 114 112 110 109 108 105 104 105 105 104 101 98 97 96 95 94 92 91 89 86 82 80 78 75 72 70 68 67 66 64 63 62 62 59 55 54 54 54 52 50 48 47 43 40 40 40 38 37 37 36 35 35 35 35 35
91 97 100 103 105 108 110 114 114 111 109 109 108 106 105 105 106 105 103 100 98 97 97 96 94 92 89 85 82 81 79 76 73 71 69 67 66 66 65 63 61 57 56 56 55 54 52 49 48 46 42 40 41 41 39 38 38 37 37 37 37 37 37
88 93 96 99 102 105 109 112 113 111 109 109 110 108 105 104 105 106 104 101 99 99 99 97 95 92 88 85 83 82 80 77 74 72 70 69 68 67 65 62 59 57 56 56 55 53 51 49 48 46 43 42 42 42 40 40 39 38 39 40 39 38 38
85 90 93 96 99 102 106 109 111 110 110 111 112 108 105 105 106 106 105 103 101 100 99 97 95 92 88 86 85 83 81 78 76 74 73 71 69 67 65 63 60 58 57 55 54 53 51 50 49 47 44 43 44 43 42 41 41 41 42 41 40 39 39
83 87 90 94 97 100 104 106 108 110 111 113 111 107 107 108 108 107 107 105 103 102 100 98 96 92 90 88 86 83 82 80 78 76 74 72 70 68 66 64 62 60 58 56 55 53 51 50 49 46 44 45 45 44 44 44 43 43 42 41 41 41 41
81 85 88 93 96 99 102 104 106 109 110 111 110 108 108 110 109 109 109 107 105 103 101 99 97 93 91 89 86 84 83 81 80 78 76 73 71 69 67 66 65 63 61 58 56 55 53 51 49 47 46 46 46 45 46 45 44 42 42 42 43 42 42
79 82 86 90 93 97 101 103 104 106 107 108 109 110 110 110 109 110 110 108 106 105 103 101 98 94 91 90 88 85 84 82 81 79 77 75 72 70 68 67 66 65 63 61 59 57 54 52 50 49 48 48 47 48 47 45 43 43 44 44 44 43 43
77 80 83 87 91 95 98 100 101 102 103 104 107 109 111 111 110 110 111 110 108 106 104 102 99 96 92 91 89 87 85 84 82 80 78 76 73 71 70 69 68 67 65 64 62 59 56 54 52 51 50 50 50 50 48 45 44 45 45 44 44 44 43
75 79 82 85 89 93 95 97 98 99 99 101 104 108 110 111 111 111 111 110 109 107 105 103 101 97 94 92 91 88 86 85 84 81 78 76 75 73 71 70 69 68 67 65 63 61 59 57 55 53 53 52 52 51 48 47 46 46 45 45 44 43 41
74 77 80 83 87 92 94 95 96 96 96 98 102 106 109 110 111 111 111 111 110 108 106 104 102 98 95 93 92 90 88 86 84 82 79 77 75 74 72 71 70 68 67 66 64 62 60 58 56 55 55 54 54 52 50 49 49 47 46 46 44 42 40
72 76 78 81 86 90 92 93 94 94 95 97 101 105 108 110 110 111 111 111 110 109 106 105 103 100 96 95 93 91 89 87 85 83 80 78 76 75 73 71 70 69 67 66 65 63 61 60 58 58 57 56 55 53 51 51 50 48 47 46 44 42 41
71 74 76 79 84 88 90 92 93 93 94 96 100 105 108 109 110 111 111 111 110 109 107 106 104 101 98 96 95 93 91 89 87 84 82 79 77 76 74 72 71 69 68 66 65 63 62 61 60 59 59 58 56 54 53 52 50 49 48 46 45 43 42
70 73 75 78 82 86 89 91 92 92 93 95 99 104 108 109 110 110 110 110 110 109 108 107 104 101 98 97 96 94 92 90 88 86 83 81 79 77 75 74 72 70 68 67 65 64 62 62 61 60 59 58 57 55 54 52 50 49 48 46 45 43 43
68 71 73 76 81 86 89 91 92 92 93 95 99 102 106 109 110 110 110 110 110 108 107 106 104 101 99 98 96 95 93 91 90 87 84 82 80 79 77 75 74 72 70 68 66 65 63 63 62 61 60 59 58 56 54 52 50 50 48 47 45 44 44
66 69 71 75 79 84 89 91 92 92 94 96 98 101 105 108 109 110 110 110 109 107 105 103 103 101 99 96 95 94 93 92 90 88 85 83 81 80 79 77 76 74 71 69 68 66 65 63 63 63 62 60 59 57 54 53 52 51 50 48 47 46 46
64 66 69 73 78 83 88 90 92 93 94 96 98 101 104 107 109 110 109 109 108 106 104 102 102 102 99 96 93 93 93 92 91 88 86 84 83 82 80 79 78 75 73 72 70 68 66 65 64 64 64 62 60 58 56 55 54 53 52 50 49 48 48
Wind_Direction
224 223 223 224 225 225 224 222 221 221 220 219 218 217 217 215 211 208 209 213 212 215 222 220 215 219 222 220 221 220 217 215 213 210 211 211 211 211 213 216 218 218 219 220 217 216 216 214 210 204 202 206 209 209 206 203 207 213 216 217 215 213 214
223 223 223 223 224 224 224 222 220 220 220 219 217 217 217 216 211 208 208 212 212 213 221 223 217 219 223 221 221 222 220 218 215 211 211 213 213 213 215 218 219 219 222 224 223 222 222 219 216 210 204 205 208 210 210 209 209 213 215 215 215 214 214
222 222 223 223 223 223 223 222 219 219 219 218 217 217 217 216 212 209 207 210 212 212 220 225 220 218 222 222 221 223 223 220 217 214 213 214 215 215 218 221 220 218 221 225 226 225 225 225 221 218 212 209 209 210 211 213 214 216 217 215 216 218 217
220 221 223 222 222 222 223 222 219 218 218 218 217 216 216 215 212 209 206 207 210 212 218 224 222 220 222 222 221 221 221 221 219 217 215 215 216 216 218 221 220 218 221 225 227 226 226 229 230 230 225 216 213 212 213 217 218 218 219 217 216 216 217
219 220 222 223 222 221 222 222 220 218 218 217 216 215 215 214 212 209 206 204 208 211 216 221 221 222 223 221 220 219 219 220 220 219 218 217 217 217 219 221 221 220 222 225 228 228 227 229 232 235 233 224 217 214 215 217 218 218 220 221 220 217 218
220 219 220 221 221 220 220 220 218 218 217 216 216 214 214 214 213 211 206 204 207 210 216 220 219 221 224 222 220 218 216 219 220 220 220 219 219 220 221 222 222 223 224 225 228 228 226 227 230 234 236 233 225 219 217 218 218 220 222 224 225 223 221
221 219 219 220 221 221 220 219 218 217 217 216 215 213 213 213 212 211 207 205 207 210 215 220 218 220 224 223 221 219 216 217 219 220 220 220 220 222 223 223 224 225 225 225 227 228 226 227 230 233 237 238 235 228 222 220 220 222 224 227 230 229 226
220 220 219 219 220 221 220 219 218 218 217 215 214 212 212 212 211 210 207 204 207 210 214 219 218 217 221 223 222 220 217 217 220 220 220 220 220 222 223 224 224 225 226 226 225 226 227 228 229 231 234 236 237 232 225 222 221 222 224 228 231 232 231
220 219 218 217 218 220 220 218 218 217 216 215 213 212 212 212 211 211 207 203 206 210 214 218 218 215 216 220 221 220 217 217 220 221 221 221 220 221 223 224 224 225 225 224 223 224 226 227 228 228 230 233 235 234 230 227 224 223 224 227 231 234 235
219 219 218 216 216 218 218 217 216 215 215 213 212 212 212 211 211 211 208 204 206 211 214 217 219 217 215 216 218 220 219 217 219 220 220 221 221 221 222 223 224 225 224 223 222 224 226 227 228 229 229 230 232 234 234 232 228 225 225 228 231 235 238
218 218 217 215 215 217 218 217 216 214 214 212 211 211 210 210 209 209 208 204 205 211 215 217 219 219 216 214 215 219 219 217 218 219 218 219 220 221 222 222 223 224 224 224 223 225 227 227 228 229 229 230 232 234 235 234 232 230 228 228 231 234 237
217 218 217 215 214 216 217 218 216 215 214 212 210 210 209 210 209 208 207 204 205 211 216 217 219 220 218 214 213 217 219 217 218 218 218 218 219 220 221 221 222 223 224 224 223 225 227 228 228 229 229 230 232 234 236 236 234 233 231 231 231 233 236
215 217 217 215 214 214 216 216 215 214 214 212 210 209 209 209 209 208 208 204 204 211 215 216 218 220 219 215 213 215 218 217 217 218 218 218 218 219 220 220 222 224 224 224 224 225 227 228 228 229 229 230 231 233 234 235 234 233 233 233 233 233 235
214 216 216 215 214 214 214 215 214 213 212 211 210 209 209 209 208 208 209 205 205 212 215 215 218 220 218 216 213 214 216 216 217 217 217 218 218 218 219 220 221 223 224 225 225 225 226 227 228 228 228 228 229 231 233 234 235 236 236 237 237 236 236
213 215 216 215 214 213 213 213 213 213 212 210 209 208 208 208 207 208 209 205 205 212 215 215 218 219 218 216 213 213 215 215 215 216 216 217 217 217 217 218 219 221 222 223 224 224 225 226 227 228 228 228 229 231 233 234 235 237 239 240 242 242 242
212 214 215 215 214 213 212 212 212 212 211 209 208 207 207 207 207 208 209 206 205 211 214 214 217 219 218 216 214 213 214 214 214 215 215 215 215 215 215 216 218 220 222 223 225 225 226 227 228 229 229 229 230 230 232 233 234 237 240 242 244 245 247
211 213 214 214 213 212 212 212 212 212 211 209 208 206 206 206 206 207 209 206 205 210 214 214 216 218 218 217 215 213 213 213 213 213 213 213 213 213 214 215 217 220 221 223 225 225 226 227 228 229 229 229 229 230 231 234 235 238 241 243 246 247 248
211 213 213 213 213 212 211 211 211 211 210 209 207 206 206 206 206 207 208 206 205 210 214 214 215 217 218 217 216 214 213 213 213 212 212 212 212 212 213 214 216 218 220 222 224 224 225 226 227 228 229 230 230 232 234 237 238 240 242 243 246 247 248
211 212 213 212 212 211 210 211 211 210 210 209 206 206 206 205 205 206 206 205 206 210 213 213 214 216 217 216 215 215 214 213 213 212 211 212 212 212 212 213 215 217 219 221 223 223 224 226 227 228 229 230 231 233 235 237 238 239 241 242 244 245 246
210 212 212 212 211 210 210 211 210 210 209 208 207 206 206 205 204 205 205 204 206 210 213 213 213 215 216 216 215 215 214 213 213 212 211 212 213 213 213 213 214 217 218 220 222 223 225 226 227 228 229 229 231 232 234 237 239 240 242 243 244 244 244
210 211 212 211 210 209 209 210 211 210 208 208 207 207 206 205 204 204 204 204 206 210 213 213 213 214 216 215 215 215 214 213 213 212 212 212 214 214 213 213 215 217 218 219 221 223 224 225 226 228 229 230 231 233 234 237 239 241 243 244 244 244 243
210 211 211 210 209 208 209 210 211 209 207 207 207 206 205 204 203 203 204 205 207 209 212 213 213 214 215 215 215 215 215 213 213 213 213 213 214 214 214 214 215 217 217 218 220 222 223 224 226 229 230 230 232 234 235 237 240 242 244 245 245 244 243
210 210 209 209 209 208 208 210 211 209 206 206 207 206 205 204 202 202 203 205 207 209 212 213 213 214 215 215 215 216 216 214 213 213 213 213 213 214 214 215 216 216 217 219 221 223 224 224 226 228 228 229 233 235 235 237 239 241 243 244 244 244 244
209 209 208 208 208 207 208 209 210 209 206 206 207 206 205 204 202 201 203 205 207 210 212 212 213 214 214 215 215 216 216 215 214 213 213 213 213 213 214 215 215 215 217 219 221 223 224 224 225 226 227 229 233 235 235 236 238 240 241 243 244 245 245
208 208 206 206 206 206 207 209 209 209 206 206 206 205 203 203 202 201 203 205 207 210 212 212 212 213 214 215 215 216 216 216 215 214 213 213 213 214 214 214 214 215 216 218 220 222 224 224 225 226 228 230 233 234 235 236 237 238 241 244 245 246 245
207 207 205 204 204 204 206 207 208 208 206 205 205 204 202 202 201 201 202 205 207 210 211 211 212 212 213 215 215 216 216 216 216 215 214 214 214 214 214 214 214 215 216 217 220 222 224 225 227 228 229 231 233 235 236 237 238 240 243 245 246 245 245
207 206 204 203 202 203 204 206 207 207 206 205 203 202 202 202 201 200 202 204 207 209 211 211 211 211 212 215 215 216 217 217 216 216 215 215 215 215 215 215 215 216 217 218 219 221 223 225 227 228 229 231 233 235 236 238 240 242 245 246 246 246 246
205 205 204 202 201 201 203 204 205 206 205 204 203 201 201 201 201 200 201 204 206 209 210 211 210 210 211 214 215 216 217 217 217 217 216 216 216 216 215 216 216 217 217 218 219 221 222 225 227 228 230 232 233 235 237 239 241 243 245 246 247 247 247
204 204 203 202 201 201 202 203 204 205 204 202 202 201 200 200 200 200 201 203 206 208 210 210 210 209 210 213 215 216 217 218 218 217 217 217 217 216 216 217 218 218 218 219 220 221 222 224 226 228 230 232 234 236 238 240 242 243 245 247 247 248 247
203 203 202 201 200 200 201 202 203 203 202 201 200 200 200 199 199 200 201 203 206 208 209 210 210 209 210 212 215 216 217 218 219 218 217 217 218 218 218 218 219 219 220 221 221 222 223 225 226 228 231 233 235 237 238 240 241 243 245 246 247 247 248
203 203 202 200 199 199 200 201 201 201 201 199 198 199 199 199 199 200 201 203 206 208 209 210 210 209 209 212 214 215 217 218 219 219 218 218 218 219 219 219 220 221 221 222 223 224 224 226 227 229 231 233 235 236 238 239 241 243 244 245 246 246 246
203 204 201 199 198 198 199 200 200 200 199 198 197 197 198 199 199 200 201 203 205 207 208 209 210 210 210 211 214 215 216 218 219 219 219 218 219 219 220 220 221 222 222 223 224 224 225 226 228 230 231 233 235 236 238 240 241 243 244 245 245 244 244
203 204 201 198 197 197 198 199 199 198 197 197 196 196 197 198 200 201 202 203 205 207 208 209 210 210 210 211 214 215 216 218 219 219 219 219 220 220 221 221 222 223 223 224 224 225 226 227 228 230 232 233 235 236 237 239 241 243 243 244 244 244 244
203 204 201 198 197 196 197 198 197 197 196 195 195 195 196 197 199 201 202 203 205 207 208 209 210 210 210 211 214 215 216 218 219 219 220 220 220 221 222 222 223 223 224 225 226 226 226 227 228 229 231 233 234 236 237 239 241 242 242 243 243 244 244
203 203 201 199 197 195 196 196 196 195 195 194 194 194 196 197 199 201 203 204 205 207 208 209 211 210 210 211 214 216 217 218 219 220 220 221 221 222 222 223 223 224 224 225 226 227 227 228 228 229 231 232 234 235 237 238 239 240 241 241 242 242 243
203 203 201 199 197 195 195 195 195 194 194 193 193 193 195 197 199 201 203 204 205 206 207 210 211 212 211 212 214 216 218 219 220 220 221 221 222 223 223 224 224 225 225 225 226 227 227 228 229 230 231 233 234 234 235 236 237 238 239 239 239 240 242
202 202 201 199 197 195 195 195 194 193 193 193 192 193 195 197 199 200 202 204 205 206 206 209 211 212 212 212 214 217 219 220 221 221 221 222 223 224 225 225 225 225 226 226 226 227 228 229 230 232 233 234 234 235 235 235 235 236 237 237 239 240 242
Height
10767 10771 10773 10778 10784 10794 10804 10812 10821 10832 10840 10846 10854 10861 10867 10874 10885 10893 10897 10901 10905 10907 10908 10911 10916 10918 10922 10928 10932 10936 10941 10944 10949 10953 10955 10956 10959 10961 10963 10965 10967 10970 10971 10972 10974 10975 10976 10977 10978 10980 10982 10984 10985 10987 10988 10989 10991 10992 10993 10995 10996 10998 10999
10749 10755 10761 10767 10775 10784 10791 10801 10813 10821 10827 10835 10845 10853 10858 10869 10881 10887 10892 10896 10899 10901 10899 10900 10909 10914 10917 10923 10927 10931 10935 10940 10945 10949 10951 10952 10954 10956 10959 10961 10964 10967 10968 10970 10972 10973 10974 10976 10977 10978 10980 10981 10983 10985 10986 10988 10989 10990 10991 10993 10995 10996 10998
10735 10744 10749 10753 10761 10772 10778 10789 10801 10808 10817 10828 10837 10846 10855 10866 10875 10879 10886 10892 10894 10896 10891 10892 10904 10910 10911 10917 10922 10926 10930 10935 10941 10944 10946 10948 10950 10953 10955 10958 10961 10964 10965 10967 10969 10971 10973 10974 10976 10976 10977 10979 10980 10982 10984 10985 10987 10988 10990 10992 10993 10995 10996
10723 10731 10733 10738 10750 10761 10767 10778 10792 10801 10810 10818 10827 10839 10847 10856 10864 10871 10879 10886 10888 10889 10884 10886 10897 10902 10904 10910 10916 10920 10925 10930 10935 10938 10941 10944 10946 10949 10951 10953 10957 10960 10961 10963 10965 10968 10971 10972 10974 10975 10976 10976 10978 10980 10982 10983 10985 10986 10988 10989 10991 10992 10994
10711 10718 10722 10731 10742 10751 10757 10769 10783 10792 10800 10808 10818 10830 10837 10846 10856 10863 10872 10878 10879 10879 10875 10879 10889 10892 10895 10904 10909 10915 10921 10924 10929 10932 10936 10940 10942 10945 10947 10950 10953 10956 10958 10960 10962 10966 10968 10970 10972 10973 10974 10975 10976 10977 10979 10981 10983 10984 10985 10987 10988 10990 10991
10699 10705 10710 10718 10725 10732 10741 10754 10770 10780 10789 10799 10810 10822 10832 10842 10850 10856 10865 10870 10870 10872 10869 10871 10881 10885 10888 10897 10903 10910 10916 10918 10922 10926 10930 10935 10938 10941 10944 10947 10950 10952 10955 10958 10959 10963 10966 10967 10968 10970 10972 10973 10974 10975 10976 10978 10980 10982 10983 10984 10985 10987 10989
10684 10689 10696 10704 10711 10719 10730 10744 10760 10769 10779 10791 10803 10815 10824 10832 10840 10848 10857 10862 10864 10868 10864 10862 10873 10881 10883 10890 10897 10904 10910 10913 10915 10920 10924 10930 10934 10937 10941 10944 10946 10949 10952 10954 10957 10960 10962 10963 10965 10967 10969 10971 10972 10973 10974 10976 10977 10979 10980 10981 10983 10985 10986
10665 10673 10683 10694 10702 10710 10722 10738 10753 10761 10771 10782 10792 10803 10812 10820 10830 10838 10848 10857 10859 10861 10858 10854 10864 10874 10877 10883 10889 10896 10903 10907 10910 10914 10919 10924 10929 10933 10936 10940 10943 10945 10948 10952 10955 10957 10958 10960 10962 10964 10966 10968 10969 10971 10972 10973 10975 10976 10978 10979 10981 10982 10983
10647 10656 10667 10681 10690 10698 10711 10726 10737 10747 10758 10771 10784 10797 10806 10815 10824 10830 10840 10850 10850 10850 10850 10847 10852 10864 10870 10875 10881 10888 10895 10900 10904 10910 10916 10920 10924 10928 10932 10936 10939 10942 10945 10948 10951 10952 10954 10956 10959 10960 10963 10965 10967 10968 10969 10971 10972 10974 10976 10977 10978 10979 10980
10632 10643 10654 10668 10678 10686 10696 10705 10715 10729 10744 10760 10776 10788 10796 10807 10816 10822 10832 10841 10841 10840 10840 10839 10843 10853 10860 10867 10875 10881 10888 10895 10900 10905 10911 10916 10920 10924 10928 10932 10935 10938 10941 10944 10946 10947 10950 10953 10955 10957 10960 10962 10964 10965 10967 10968 10970 10971 10973 10974 10975 10976 10978
10620 10630 10641 10655 10664 10670 10677 10687 10702 10721 10736 10751 10765 10775 10786 10796 10803 10811 10822 10832 10834 10831 10831 10832 10835 10840 10850 10863 10873 10877 10883 10891 10895 10900 10905 10910 10914 10919 10923 10927 10931 10934 10937 10939 10941 10943 10946 10949 10952 10954 10957 10959 10961 10962 10964 10966 10967 10968 10970 10971 10972 10974 10975
10607 10616 10625 10638 10648 10656 10667 10682 10701 10717 10729 10742 10755 10767 10779 10786 10792 10802 10812 10821 10826 10822 10820 10825 10827 10832 10844 10859 10868 10872 10878 10885 10890 10895 10901 10905 10910 10915 10919 10923 10926 10929 10932 10935 10937 10939 10942 10945 10948 10951 10954 10956 10958 10960 10961 10963 10964 10965 10966 10967 10969 10970 10972
10593 10600 10610 10623 10635 10646 10659 10676 10693 10708 10720 10734 10748 10760 10770 10776 10786 10797 10801 10811 10817 10809 10808 10818 10822 10827 10839 10852 10862 10869 10875 10881 10885 10890 10896 10900 10906 10911 10914 10918 10921 10924 10928 10930 10932 10935 10938 10941 10944 10947 10950 10953 10955 10957 10958 10960 10961 10961 10962 10963 10965 10967 10968
10579 10587 10599 10611 10624 10638 10651 10666 10681 10693 10706 10722 10737 10750 10760 10769 10780 10787 10791 10804 10808 10799 10803 10816 10818 10821 10833 10845 10856 10864 10870 10876 10881 10885 10891 10896 10901 10906 10910 10913 10917 10920 10923 10925 10927 10931 10934 10937 10940 10943 10946 10949 10951 10953 10954 10956 10957 10958 10959 10960 10961 10963 10964
10568 10577 10587 10599 10615 10629 10641 10654 10667 10680 10695 10711 10724 10738 10750 10760 10772 10778 10783 10795 10800 10793 10800 10811 10810 10814 10826 10837 10848 10857 10863 10870 10876 10880 10886 10891 10896 10901 10905 10908 10912 10914 10917 10919 10922 10926 10929 10932 10935 10938 10941 10944 10946 10949 10951 10952 10954 10955 10956 10957 10958 10959 10961
10558 10565 10574 10589 10605 10617 10628 10641 10654 10670 10686 10700 10713 10728 10742 10753 10764 10770 10775 10786 10792 10789 10794 10803 10805 10809 10819 10830 10841 10850 10857 10864 10870 10875 10880 10885 10890 10895 10899 10903 10906 10908 10911 10914 10917 10921 10924 10927 10930 10933 10937 10939 10942 10944 10946 10948 10949 10951 10952 10954 10955 10956 10957
10546 10551 10562 10578 10591 10601 10616 10632 10646 10662 10678 10691 10705 10721 10733 10743 10752 10757 10763 10776 10785 10784 10786 10795 10801 10806 10815 10826 10835 10843 10850 10857 10863 10868 10873 10878 10884 10889 10893 10897 10900 10903 10907 10910 10913 10917 10920 10923 10926 10928 10931 10935 10937 10939 10941 10943 10945 10947 10948 10950 10951 10952 10954
10534 10538 10550 10565 10576 10591 10611 10626 10639 10654 10668 10682 10698 10712 10721 10730 10739 10746 10757 10773 10781 10777 10777 10786 10795 10802 10811 10820 10828 10836 10843 10849 10855 10862 10867 10871 10876 10881 10886 10890 10894 10899 10903 10905 10908 10911 10915 10918 10920 10923 10927 10930 10933 10935 10938 10940 10941 10943 10944 10946 10947 10949 10950
10521 10527 10538 10552 10568 10589 10607 10618 10630 10644 10658 10673 10689 10699 10707 10718 10730 10742 10755 10768 10772 10767 10767 10778 10790 10796 10803 10812 10821 10828 10835 10842 10849 10855 10860 10864 10869 10873 10879 10884 10889 10893 10896 10898 10902 10906 10909 10912 10916 10920 10923 10926 10929 10932 10933 10935 10936 10938 10939 10941 10943 10944 10946
10510 10516 10528 10545 10566 10585 10599 10610 10621 10632 10647 10665 10680 10687 10696 10710 10725 10737 10749 10758 10761 10760 10763 10773 10784 10789 10794 10804 10813 10820 10827 10835 10842 10848 10854 10858 10861 10866 10873 10879 10883 10885 10888 10892 10896 10900 10904 10908 10911 10914 10917 10921 10924 10926 10928 10930 10931 10933 10934 10936 10938 10939 10941
10502 10509 10523 10540 10559 10575 10589 10600 10608 10618 10636 10655 10667 10677 10691 10707 10720 10732 10742 10749 10753 10755 10759 10767 10776 10782 10787 10795 10805 10813 10820 10828 10835 10842 10848 10852 10856 10862 10868 10872 10875 10878 10883 10887 10891 10895 10899 10903 10906 10908 10912 10916 10918 10920 10923 10925 10926 10928 10929 10931 10933 10934 10935
10495 10503 10517 10533 10549 10565 10579 10586 10593 10609 10630 10645 10656 10670 10685 10699 10712 10724 10734 10741 10745 10748 10752 10759 10768 10773 10778 10788 10800 10808 10814 10822 10829 10835 10841 10846 10852 10857 10861 10864 10868 10873 10878 10882 10885 10888 10892 10897 10900 10903 10908 10911 10913 10915 10917 10919 10920 10923 10924 10925 10927 10929 10930
10487 10496 10511 10527 10542 10558 10569 10575 10584 10603 10622 10636 10648 10662 10676 10689 10703 10717 10726 10732 10738 10741 10743 10749 10759 10765 10773 10786 10796 10802 10807 10816 10823 10829 10835 10840 10845 10849 10854 10858 10863 10869 10873 10875 10878 10882 10887 10892 10895 10898 10902 10905 10906 10909 10911 10913 10915 10917 10918 10919 10921 10923 10924
10479 10490 10506 10520 10535 10549 10559 10567 10579 10597 10615 10628 10638 10652 10671 10686 10698 10711 10719 10725 10731 10733 10734 10742 10753 10762 10772 10783 10789 10794 10801 10810 10817 10823 10828 10833 10838 10843 10848 10854 10859 10863 10866 10869 10873 10876 10881 10885 10889 10892 10896 10899 10900 10902 10905 10907 10909 10910 10911 10913 10915 10917 10919
10472 10482 10498 10511 10526 10540 10550 10560 10574 10590 10606 10616 10624 10643 10666 10680 10691 10704 10712 10717 10722 10724 10727 10737 10748 10759 10768 10775 10780 10787 10796 10803 10810 10815 10820 10826 10832 10837 10843 10848 10853 10857 10860 10863 10867 10870 10874 10879 10882 10886 10891 10893 10893 10896 10898 10900 10902 10903 10904 10907 10910 10912 10914
10465 10476 10490 10502 10516 10530 10540 10552 10566 10579 10590 10601 10617 10641 10657 10665 10677 10693 10701 10706 10712 10715 10720 10731 10743 10753 10761 10767 10774 10782 10789 10795 10802 10807 10814 10820 10825 10831 10837 10842 10846 10850 10854 10858 10861 10865 10869 10873 10877 10881 10884 10886 10887 10890 10892 10893 10895 10897 10900 10902 10904 10906 10907
10460 10471 10483 10494 10507 10520 10531 10543 10556 10566 10579 10595 10615 10634 10645 10654 10667 10680 10688 10695 10701 10705 10713 10724 10736 10747 10755 10761 10768 10775 10780 10787 10794 10800 10807 10814 10819 10825 10831 10836 10840 10844 10848 10852 10856 10859 10863 10867 10871 10875 10877 10879 10881 10883 10885 10887 10890 10893 10895 10896 10898 10900 10902
10456 10466 10478 10489 10502 10513 10523 10534 10546 10558 10574 10593 10608 10621 10634 10647 10661 10671 10679 10686 10692 10697 10706 10717 10728 10740 10749 10754 10761 10767 10773 10779 10786 10793 10801 10807 10813 10819 10825 10829 10833 10838 10842 10846 10849 10853 10857 10861 10865 10868 10870 10872 10874 10876 10878 10882 10886 10888 10889 10890 10892 10894 10896
10453 10462 10474 10486 10498 10508 10517 10528 10540 10553 10569 10586 10601 10613 10625 10638 10652 10662 10671 10678 10683 10690 10699 10710 10721 10734 10742 10747 10753 10760 10766 10771 10778 10786 10794 10801 10806 10813 10818 10822 10827 10831 10835 10839 10843 10848 10852 10855 10858 10861 10863 10865 10868 10870 10874 10878 10880 10882 10883 10885 10887 10889 10891
10450 10458 10469 10481 10493 10503 10513 10524 10536 10550 10565 10581 10595 10608 10619 10630 10643 10654 10662 10669 10676 10683 10693 10704 10715 10727 10736 10741 10746 10753 10759 10764 10770 10779 10787 10794 10800 10805 10810 10815 10820 10825 10830 10834 10838 10842 10846 10849 10852 10855 10857 10859 10862 10865 10869 10872 10874 10876 10878 10880 10882 10884 10886
10448 10454 10465 10477 10487 10497 10508 10519 10531 10545 10560 10575 10588 10601 10614 10625 10636 10646 10654 10662 10669 10677 10687 10698 10709 10721 10730 10735 10739 10747 10753 10757 10764 10773 10780 10787 10793 10798 10804 10809 10814 10819 10824 10829 10832 10836 10840 10843 10846 10848 10850 10853 10855 10859 10863 10866 10868 10870 10872 10874 10876 10878 10880
10445 10452 10463 10474 10483 10493 10504 10515 10527 10540 10555 10569 10581 10594 10607 10620 10630 10639 10647 10655 10661 10670 10681 10692 10702 10714 10724 10728 10733 10740 10746 10751 10758 10766 10773 10780 10786 10791 10797 10802 10807 10812 10817 10822 10826 10830 10834 10837 10839 10841 10843 10846 10849 10853 10857 10859 10861 10864 10866 10868 10870 10872 10874
10443 10450 10460 10470 10479 10490 10500 10511 10523 10536 10550 10563 10576 10588 10600 10613 10624 10632 10640 10648 10655 10664 10674 10684 10694 10706 10717 10722 10727 10733 10740 10746 10752 10759 10766 10774 10779 10785 10791 10796 10801 10806 10811 10815 10820 10824 10827 10830 10832 10834 10837 10839 10843 10847 10850 10853 10855 10858 10859 10862 10864 10866 10868
10441 10448 10457 10467 10476 10487 10497 10507 10519 10532 10545 10558 10571 10583 10594 10606 10617 10627 10635 10642 10649 10658 10669 10678 10688 10699 10709 10716 10721 10727 10734 10739 10745 10752 10760 10767 10773 10778 10784 10789 10794 10799 10804 10808 10813 10817 10821 10823 10825 10827 10830 10833 10836 10840 10843 10846 10849 10851 10853 10856 10858 10860 10862
10438 10445 10455 10465 10474 10483 10492 10502 10515 10528 10540 10553 10565 10578 10590 10600 10610 10620 10629 10636 10644 10653 10664 10674 10682 10693 10703 10710 10715 10721 10728 10733 10739 10746 10754 10761 10767 10771 10777 10783 10787 10792 10796 10801 10806 10810 10813 10816 10818 10820 10823 10825 10829 10833 10836 10840 10842 10844 10847 10850 10852 10854 10855
10436 10444 10453 10462 10472 10481 10490 10499 10511 10523 10535 10547 10560 10573 10585 10595 10604 10613 10621 10630 10639 10649 10661 10670 10679 10689 10699 10706 10712 10717 10723 10728 10734 10741 10749 10755 10760 10764 10769 10775 10780 10784 10790 10794 10798 10802 10806 10809 10810 10813 10815 10818 10821 10826 10829 10833 10835 10838 10840 10843 10845 10847 10848
10435 10443 10452 10460 10469 10479 10488 10497 10508 10519 10531 10543 10555 10567 10578 10588 10597 10605 10615 10624 10633 10644 10655 10664 10672 10681 10692 10700 10707 10713 10719 10724 10730 10736 10743 10749 10752 10756 10762 10768 10772 10777 10782 10786 10790 10795 10799 10802 10803 10806 10808 10811 10815 10819 10822 10825 10828 10831 10833 10837 10839 10840 10841